Location: Eboldshausen
(51.7766°N, 10.0050°E)
Time: 08:13:04
(UTC+00:00)

MOZ.5/SAFIR/RUBIN 5/SL-8 - Pass Details

Date: 15 June 2024
Orbit: 672 x 699 km, 98.3° (Epoch: 22 July)

Event Time Altitude Azimuth Distance (km) Brightness Sun altitude
Exits shadow 01:05:16 14° 183° (S) 1,862 5.4 -11.5°
Maximum altitude 01:09:09 55° 259° (W) 820 4.0 -11.2°
Drops below altitude 10° 01:13:43 10° 338° (NNW) 2,126 6.9 -10.9°
Sets 01:16:00 0° 343° (NNW) 3,042 7.9 -10.8°
